• MPC Preparation (Info)

  • MPEC 2016-O62 : 2014 UQ224

    The following Minor Planet Electronic Circular may be linked-to from your own Web pages, but must not otherwise be redistributed electronically.

    A form allowing access to any MPEC is at the bottom of this page.


    Read MPEC 2016-O61 Read MPEC 2016-O63


    M.P.E.C. 2016-O62                                Issued 2016 July 16, 22:11 UT
    
         The Minor Planet Electronic Circulars contain information on unusual
             minor planets and routine data on comets.  They are published
        on behalf of Division F of the International Astronomical Union by the
              Minor Planet Center, Smithsonian Astrophysical Observatory,
                              Cambridge, MA 02138, U.S.A.
    
                 Prepared using the Tamkin Foundation Computer Network
    
                                  MPC@CFA.HARVARD.EDU
                URL https://www.minorplanetcenter.net/    ISSN 1523-6714
    
                                      2014 UQ224
    
    Observations:
         K14UM4Q  C2011 10 25.42201 04 14 49.151+22 44 52.49         22.0 wLEO062F51
         K14UM4Q  C2011 10 25.43657 04 14 49.085+22 44 52.38         21.9 wLEO062F51
         K14UM4Q  C2011 10 25.45105 04 14 49.030+22 44 52.28         22.0 wLEO062F51
         K14UM4Q  C2011 10 25.46551 04 14 48.977+22 44 52.07         21.9 wLEO062F51
         K14UM4Q  C2012 10 22.55198 04 19 44.112+22 58 13.47         22.0 wLEO062F51
         K14UM4Q  C2012 10 22.56641 04 19 44.055+22 58 13.45         22.2 wLEO062F51
         K14UM4Q  C2012 10 22.58086 04 19 44.007+22 58 13.27         22.2 wLEO062F51
         K14UM4Q  C2012 10 22.59535 04 19 43.944+22 58 13.29         21.9 wLEO062F51
         K14UM4Q  C2013 12 03.29538 04 21 26.982+23 04 17.46         21.9 wLEO062F51
         K14UM4Q  C2013 12 03.30950 04 21 26.911+23 04 17.24         22.2 wLEO062F51
         K14UM4Q  C2013 12 03.32364 04 21 26.838+23 04 17.12         22.1 wLEO062F51
         K14UM4Q  C2013 12 03.33781 04 21 26.765+23 04 16.98         22.1 wLEO062F51
         K14UM4Q  C2014 02 26.23656 04 17 41.466+22 53 45.21         22.2 wLEO062F51
         K14UM4Q  C2014 02 26.24989 04 17 41.464+22 53 45.19         22.2 wLEO062F51
         K14UM4Q  C2014 02 26.26315 04 17 41.487+22 53 44.82         22.2 wLEO062F51
         K14UM4Q* C2014 10 26.61703 04 29 07.450+23 22 21.58         22.2 wLEO062F51
         K14UM4Q  C2014 10 26.62539 04 29 07.415+23 22 21.51         22.1 wLEO062F51
         K14UM4Q  C2014 10 26.63384 04 29 07.416+23 22 21.06         21.9 wLEO062F51
         K14UM4Q  C2014 11 17.34906 04 27 34.175+23 19 24.16         22.2 wLEO062F51
         K14UM4Q  C2014 11 17.36193 04 27 34.105+23 19 24.19         22.0 wLEO062F51
         K14UM4Q  C2014 11 17.37482 04 27 34.041+23 19 24.15         22.0 wLEO062F51
         K14UM4Q  C2014 11 17.38769 04 27 33.981+23 19 24.01         22.4 wLEO062F51
         K14UM4Q  C2014 11 27.50517 04 26 45.564+23 17 43.77         22.1 wLEO062F51
         K14UM4Q  C2014 11 27.53168 04 26 45.466+23 17 43.29         21.9 wLEO062F51
         K14UM4Q  C2014 11 27.54492 04 26 45.387+23 17 43.26         21.8 wLEO062F51
         K14UM4Q  C2014 12 13.29010 04 25 29.631+23 14 56.13         22.2 wLEO062F51
         K14UM4Q  C2014 12 13.29076 04 25 29.620+23 14 56.22         22.2 wLEO062F51
         K14UM4Q  C2014 12 13.30272 04 25 29.557+23 14 56.18         21.9 wLEO062F51
         K14UM4Q  C2014 12 13.30338 04 25 29.566+23 14 56.19         22.2 wLEO062F51
         K14UM4Q  C2014 12 13.31537 04 25 29.501+23 14 55.97         22.1 wLEO062F51
         K14UM4Q  C2014 12 13.31603 04 25 29.490+23 14 56.15         22.4 wLEO062F51
         K14UM4Q  C2014 12 13.32810 04 25 29.440+23 14 55.86         22.3 wLEO062F51
         K14UM4Q  C2014 12 13.32876 04 25 29.447+23 14 55.96         22.2 wLEO062F51
    
    Observer details:
    F51 Pan-STARRS 1, Haleakala.  Observers B. Gibson, T. Goggia, N. Primak,
        A. Schultz, M. Willman.  Measurers K. Chambers, S. Chastel, Y.-T. Chen,
        L. Denneau, H. Flewelling, M. Holman, M. Huber, R. Jedicke, M. Lackner,
        E. Lilly, H.-W. Lin, E. Magnier, M. Micheli, M. Payne, P. Veres,
        R. Wainscoat, C. Waters, R. Weryk.  1.8-m Ritchey-Chretien + CCD.
    
    Orbital elements:
    2014 UQ224
    Epoch 2016 July 31.0 TT = JDT 2457600.5                 MPC
    M 195.14011              (2000.0)            P               Q
    n   0.00333367     Peri.  219.93827     -0.54769359     +0.83662074
    a  44.3799927      Node    16.86019     -0.75868408     -0.49162846
    e   0.0524368      Incl.    1.95065     -0.35274666     -0.24159303
    P 296              H    5.3           G   0.15           U   4
    Residuals in seconds of arc
    111025 F51  0.1+  0.1-    131203 F51  0.0   0.0     141127 F51  0.2-  0.2+
    111025 F51  0.0   0.1-    140226 F51  0.0   0.2+    141127 F51  0.3+  0.0
    111025 F51  0.0   0.1-    140226 F51  0.1-  0.1+    141127 F51  0.1+  0.1+
    111025 F51  0.1+  0.2-    140226 F51  0.0   0.2-    141213 F51  0.1+  0.3-
    121022 F51  0.1-  0.1+    141026 F51  0.1-  0.2+    141213 F51  0.0   0.2-
    121022 F51  0.1-  0.2+    141026 F51  0.2-  0.2+    141213 F51  0.1-  0.1-
    121022 F51  0.0   0.1+    141026 F51  0.3+  0.2-    141213 F51  0.1+  0.1-
    121022 F51  0.1-  0.2+    141117 F51  0.1+  0.1-    141213 F51  0.1-  0.2-
    131203 F51  0.2+  0.0     141117 F51  0.0   0.1+    141213 F51  0.2-  0.0
    131203 F51  0.1+  0.0     141117 F51  0.1-  0.2+    141213 F51  0.1-  0.1-
    131203 F51  0.1+  0.0     141117 F51  0.1-  0.1+    141213 F51  0.1+  0.0
    
    Ephemeris:
    2014 UQ224               a,e,i = 44.38, 0.05, 2                  q = 42.053
    Date    TT    R. A. (2000) Decl.     Delta      r     Elong.  Phase     V
    2016 06 16    04 35 08.8 +23 33 30  47.6183 46.6355    14.5     0.3    22.1
    ...
    2016 07 01    04 36 33.8 +23 36 33  47.5264 46.6351    28.5     0.6    22.1
    ...
    2016 07 09    04 37 15.7 +23 38 05  47.4544 46.6348    35.9     0.7    22.2
    ...
    2016 07 15    04 37 45.0 +23 39 11  47.3908 46.6346    41.5     0.8    22.2
    2016 07 16    04 37 49.7 +23 39 21  47.3795 46.6346    42.5     0.8    22.2
    2016 07 17    04 37 54.3 +23 39 32  47.3679 46.6346    43.4     0.9    22.2
    ...
    2016 07 23    04 38 20.8 +23 40 33  47.2945 46.6344    49.0     0.9    22.2
    ...
    2016 07 31    04 38 52.4 +23 41 49  47.1864 46.6341    56.5     1.0    22.2
    ...
    2016 08 15    04 39 38.8 +23 43 47  46.9583 46.6336    70.7     1.2    22.2
    
    A. U. Tomatic                (C) Copyright 2016 MPC           M.P.E.C. 2016-O62
    

    Read MPEC 2016-O61 Read MPEC 2016-O63


    MPEC number:

    Enter an MPEC number in one of the following forms:

    • 1997-B01 (the full form)
    • J97B01 (the packed version of the full form)
    • B01 (the abbreviated form)